Regional Weather Roundup
Issued by NWS Grand Forks, ND

Home | Current Version | Previous Version | Graphics & Text | Print | Product List | Glossary On
Versions: 1 2 3 4 5 6 7 8 9 10 11 12 13 14 15 16 17 18 19 20 21 22 23 24 25 26 27 28 29 30 31 32 33 34 35 36 37 38 39 40 41 42 43 44 45 46 47 48 49 50
000
ASUS43 KFGF 311631
RWRFGF
PRAIRIE TO PINES  WEATHER ROUNDUP
NATIONAL WEATHER SERVICE EASTERN NORTH DAKOTA/GRAND FORKS ND
1100 AM CDT MON AUG 31 2015

 **SATELLITE DATA USED TO AUGMENT SKY COVER AT AUTOMATED STATIONS**
 *****  WEATHER ACROSS EASTERN NORTH DAKOTA  *****

CITY           SKY/WX    TMP DP  RH WIND       PRES   REMARKS
GRAND FORKS    CLOUDY    73  66  78 NW10      29.72R
GRAND FRKS AFB MOSUNNY   76  68  77 N9        29.72R
GRAND FRKS NWS   N/A     68 N/A N/A SW7         N/A
DEVILS LAKE    PTSUNNY   72  54  53 NW18      29.78R
FARGO          SUNNY     79  63  57 SW13      29.73R
WAHPETON ARPT  SUNNY     81  59  47 S12       29.76S
$$

 ***** WEATHER ACROSS CENTRAL AND WESTERN NORTH DAKOTA  *****

CITY           SKY/WX    TMP DP  RH WIND       PRES   REMARKS
BISMARCK       PTSUNNY   73  57  57 N9        29.86R
MINOT          SUNNY     70  50  49 W17       29.82R
JAMESTOWN      PTSUNNY   73  61  65 NW23G32   29.78R
MINOT AFB      SUNNY     71  50  48 W18G24    29.81R
GARRISON         N/A     69  50  50 W17G23    29.87R
WILLISTON      SUNNY     69  43  38 W15       29.89R
DICKINSON      SUNNY     68  49  50 W16       29.93R
HETTINGER      PTSUNNY   70  47  43 N15G21    29.96R
$$

 *****  OTHER AIRPORT OBSERVATIONS IN OUR AREA  *****

CITY           SKY/WX    TMP DP  RH WIND       PRES   REMARKS
WALHALLA       FAIR      73  66  78 MISG      29.75R
GRAFTON AIRPOR FAIR      75  64  69 N12G18    29.73R
VALLEY CITY AR FAIR      75  72  88 N20       29.76R
CANDO          FAIR      73  55  53 N12       29.79S
CAVALIER APRT  FAIR      72  63  73 NW8       29.74R
GWINNER        FAIR      77  63  61 W17G24    29.77R
SHEYENNE NWR     N/A     78  64  60 SW12      29.95S
ROLLA          FAIR      70  52  52 W13       29.81R
 ***** THE ABOVE OBSERVATIONS ARE NON NWS ARE NOT QUALITY
       CONTROLLED AND MAY MIS-REPORT RAIN FOR SNOW...
$$

  *****  WEATHER ACROSS NORTHERN MINNESOTA  *****

CITY           SKY/WX    TMP DP  RH WIND       PRES   REMARKS
FLAG ISLAND    CLOUDY    70  63  78 SW13      29.69R
WARROAD        CLOUDY    70  64  83 SW8       29.70S
ROSEAU         CLOUDY    72  63  73 SW9       29.70S
HALLOCK        PTSUNNY   73  66  78 NW8       29.70S
THF RVR FALLS  CLOUDY   N/A N/A N/A SW13      29.72R
BAUDETTE       MOSUNNY   76  61  59 SW13G22   29.71S
WASKISH        MOSUNNY   77  63  61 S9        29.73S
CROOKSTON      CLOUDY    72  64  78 SW14      29.73R
STEPHEN NDAWN    N/A     72  66  83 W8          N/A
GREENBUSH NDAW   N/A     70  63  78 SW7         N/A
$$
  *****  WEATHER ACROSS CENTRAL AND WEST MINNESOTA  *****

CITY           SKY/WX    TMP DP  RH WIND       PRES   REMARKS
FOSSTON        SUNNY     77  61  57 SW20      29.75R
BEMIDJI        SUNNY     76  59  55 SW15G21   29.77R
PARK RAPIDS    SUNNY     77  59  53 S17       29.78F
ELBOW LAKE     FAIR      75  64  69 S16G26    29.80R
WADENA         SUNNY     77  63  61 S13G18    29.81S
DETROIT LAKES  SUNNY     77  61  57 SW9G22    29.79R
MOORHEAD       SUNNY     79  63  57 SW12      29.75R
FERGUS FALLS   SUNNY     77  63  61 S15G21    29.77S
MORRIS MN      SUNNY     77  66  69 S18       29.79F
STAPLES        SUNNY     75  63  64 S15G21    29.82F
$$
  *****  WEATHER ELSEWHERE ACROSS MINNESOTA  *****

CITY           SKY/WX    TMP DP  RH WIND       PRES   REMARKS
DULUTH         MOSUNNY   72  63  73 S16       29.90R
INTRNTL FALLS  MOSUNNY   76  62  62 S12G17    29.75F
ELY            SUNNY     75  57  53 S8        29.84F
CLOQUET        SUNNY     73  63  68 S12G17    29.89F
WHEATON        SUNNY     77  64  65 S10       29.79R
BRAINERD       SUNNY     74  64  71 S15G23    29.84F
HIBBING        SUNNY     72  63  73 VRB7G17   29.85F
ALEXANDRIA     SUNNY     74  64  71 S21G29    29.85R
SAINT CLOUD    MOSUNNY   74  67  78 S15       29.89S
MINNEAPOLIS    PTSUNNY   76  68  76 S13       29.94S
$$

  *****  WEATHER ACROSS SOUTH DAKOTA  *****

CITY           SKY/WX    TMP DP  RH WIND       PRES   REMARKS
SIOUX FALLS    MOSUNNY   75  68  78 S16G24    29.90R
BROOKINGS      SUNNY     73  66  78 S17G24    29.90R
WATERTOWN      SUNNY     75  65  70 S18G30    29.82R
HURON          SUNNY     78  65  63 S13G22    29.80R
SISSETON         N/A     81  62  52 W13       29.77R
ABERDEEN       MOSUNNY   78  65  63 SW14      29.79R
MITCHELL       SUNNY     76  65  68 S15G21    29.83S
PIERRE         CLOUDY    73  61  65 N15G24    29.83R HAZE
MOBRIDGE       PTSUNNY   75  59  57 NW16G25   29.84R
RAPID CITY     CLOUDY    68  55  63 NW25G32   29.99R
$$

  *****  SOME WEATHER IN NEARBY STATES *****

CITY           SKY/WX    TMP DP  RH WIND       PRES   REMARKS
GLASGOW MT     SUNNY     64  41  42 W15       29.88S
GREAT FALLS MT PTSUNNY   63  34  33 SW23      29.94R
CHEYENNE WY    CLOUDY    77  47  34 W8        30.16R
SCOTTSBLUFF NE CLOUDY    76  55  48 CALM      30.01R
OMAHA NE       MOSUNNY   78  71  79 SE10      29.97R
DES MOINES IA  MOSUNNY   80  71  74 S8        30.00R
DAVENPORT IA   SUNNY     79  70  74 SE6       30.06S
CHICAGO IL     SUNNY     78  67  68 CALM      30.08S
EAU CLAIRE WI  CLOUDY    72  66  81 S10       29.99S
LA CROSSE WI   CLOUDY    72  66  81 SE8       30.01F
$$

  *****  SOME NATIONAL WEATHER *****

CITY           SKY/WX    TMP DP  RH WIND       PRES   REMARKS
LA GUARDIA NY  PTSUNNY   83  66  56 W3        30.03S
RALEIGH NC     CLOUDY    72  67  84 NE6       30.14R
ATLANTA GA     CLOUDY    73  66  78 CALM      30.16R
NEW ORLEANS LA PTSUNNY   86  71  60 NE8       30.08S HX  91
OKLAHOMA CITY  MOSUNNY   85  64  49 S16       30.02R
ALBUQUERQUE NM MOSUNNY   78  49  35 N7        30.21S
SALT LAKE CITY MOSUNNY   73  43  33 CALM      30.09S
LOS ANGELES CA PTSUNNY   72  64  76 E5        29.91R
BOISE ID       SUNNY     61  43  51 W6        30.10S
SEATTLE WA     CLOUDY    63  51  65 S16G23    29.97F
$$

*** WEATHER ACROSS MANITOBA...SASKATCHEWAN AND ONTARIO ***
                ***ONTARIO***

CITY           SKY/WX    TMP DP  RH WIND       PRES   REMARKS
GERALDTON      PTSUNNY   70  64  83 SE10      29.87F
THUNDER BAY    CLOUDY    63  61  94 NE6       29.87S FOG
SIOUX LOOKOUT  CLOUDY    73  63  68 SW10G18   29.73R
TORONTO        MOSUNNY   79  66  65 W12       30.04F
BIG TROUT LK   CLOUDY    59  57  94 SE12G20   29.63F
PICKLE LAKE    PTSUNNY   75  64  69 S12G21    29.68F
DRYDEN         SUNNY     73  63  68 SW10      29.72R
KENORA         PTSUNNY   70  63  78 S9        29.68F
$$
                *** MANITOBA***

CITY           SKY/WX    TMP DP  RH WIND       PRES   REMARKS
BRANDON        PTSUNNY   68  57  68 SW13      29.73R
DAUPHIN        SUNNY     64  59  82 W15G21    29.62R
ISLAND LAKE    CLOUDY    66  64  94 SW6       29.53R
PILOT MOUND      N/A     68  55  64 N12         N/A
THE PAS        CLOUDY    61  54  77 W5        29.50F
THOMPSON       CLOUDY    55  54  94 E3        29.52F FOG
WINNIPEG       LGT RAIN  70  64  83 W9        29.68R
LYNN LAKE      CLOUDY    59  57  94 MISG      29.47F
CHURCHILL      CLOUDY    48  46  93 SE23G30   29.66F
GILLAM         DRZL/FOG  48  48 100 E6        29.58S VSB 3/4
$$
                ***SASKATCHEWAN***

CITY           SKY/WX    TMP DP  RH WIND       PRES   REMARKS
ESTEVAN        MOSUNNY   66  45  45 W23       29.81R
KINDERSLEY     MOSUNNY   63  37  39 SW16      29.65S
LLOYDMINSTER   MOSUNNY   59  45  58 SW9       29.57R
PRINCE ALBERT  MOSUNNY   64  48  55 W8        29.52R
REGINA         MOSUNNY   63  46  55 W22G29    29.72
YORKTON        CLOUDY    59  55  88 SW10      29.65S
N. BATTLEFORD    N/A     63  45  51 W8        29.59S
LA RONGE       MOSUNNY   66  57  72 W5        29.45R
SASKATOON      MOSUNNY   66  48  52 W15       29.60R
SWIFT CURRENT  SUNNY     64  37  36 W22G38    29.73S
$$
NOTE: THESE ARE AUTOMATED STATIONS WITH LIMITED QUALITY CONTROL
      "FAIR" INDICATES FEW OR NO CLOUDS BELOW 12,000 FEET WITH NO
      SIGNIFICANT WEATHER AND/OR OBSTRUCTIONS TO VISIBILITY.
      SKY/WX - SKY CONDITION AND SIGNIFICANT WEATHER.
      TMP - AIR TEMPERATURE.    DP   - DEWPOINT TEMPERATURE.
      RH  - RELATIVE HUMIDITY.  PRES - PRESSURE.
      HX  - HEAT INDEX.         WCI  - WIND CHILL INDEX.
$



USA.gov is the U.S. government's official web portal to all federal, state and local government web resources and services.